SES-18

Last updated on Tue Sep 22 2026 00:03:16 GMT+0000 (Coordinated Universal Time)

1 55970U 23038A 26264.54156787 -.00000105 00000+0 00000+0 0 9990 2 55970 0.0508 273.0666 0002369 310.5761 228.6563 1.00272945 13066
UTC large
Height (km)
Speed (km/s)
/
Latitude / Longitude
Inclination (degrees)
Orbital Period (minutes)
Azimuth
Elevation
Range (km)
Doppler Factor

Next 0 passes for location: London (51.5072 / 0.1276)

No passes found over London.
SES-18